Weather observations for the past three days for
Port Angeles Fairchild International Airport
Imperial (Metric)
Date Time (pdt) Wind (mph) Vis. (mi.) Weather Sky Cond. Temperature (ºF) Relative Humidity Wind Chill (°F) Heat Index (°F) Pressure Precipitation (in)
Air Dwpt 6 hour altimeter (in) sea level (mb) 1 hr 3 hr 6 hr
Max. Min.
08 18:53 W 7 10.00 Partly Cloudy SCT075 55 44.1 67% 30.18 1022.0
08 17:53 NW 8 10.00 Partly Cloudy SCT060 55.9 44.1 65% 30.18 1022.0
08 16:53 W 10 10.00 Overcast OVC060 55.9 43 55.9 51.1 62% 30.18 1022.0
08 15:53 Vrbl 7 10.00 Mostly Cloudy BKN034 55 43 64% 30.17 1021.9
08 14:53 NW 6 10.00 A Few Clouds FEW032 54 42.1 64% 30.17 1021.7
08 13:53 Vrbl 6 10.00 Overcast OVC029 54 43 67% 30.16 1021.4
08 12:53 NW 9 G 17 10.00 Overcast OVC030 53.1 43 69% 30.15 1021.0
08 11:53 W 9 G 18 10.00 Overcast OVC028 51.1 43 74% 30.13 1020.5
08 10:53 NW 12 10.00 Overcast OVC024 51.1 43 51.1 46.9 74% 30.12 1020.2
08 09:53 W 10 10.00 Overcast OVC021 50 43 77% 46 30.11 1019.6
08 08:53 W 10 10.00 Overcast OVC017 50 44.1 80% 46 30.09 1019.0
08 07:53 W 9 10.00 Overcast OVC017 50 45 83% 47 30.08 1018.5
08 06:53 Vrbl 7 10.00 Overcast OVC016 48.9 45 86% 46 30.06 1017.9
08 05:53 SW 5 10.00 Overcast OVC016 48 45 89% 47 30.04 1017.4
08 04:53 W 6 10.00 Mostly Cloudy BKN016 46.9 45 46.9 44.1 93% 45 30.04 1017.4
08 03:53 Calm 10.00 Fair CLR 46 44.1 93% 30.03 1016.9
08 02:53 W 3 10.00 Fair CLR 46 44.1 93% 30.02 1016.8
08 01:53 Calm 10.00 Fair CLR 45 44.1 97% 30.01 1016.5
08 00:53 Calm 10.00 Fair CLR 45 44.1 97% 30.01 1016.4
07 23:53 S 3 10.00 Fair CLR 46.9 44.1 90% 30.02 1016.7
07 22:53 Calm 10.00 Fair CLR 46.9 44.1 55 46 90% 30.03 1016.9
07 21:53 W 5 10.00 Fair CLR 46.9 43 86% 45 30.03 1017.1
07 20:53 W 5 10.00 Fair CLR 48.9 44.1 83% 48 30.04 1017.2
07 19:53 W 5 10.00 Fair CLR 51.1 45 80% 30.04 1017.4
07 18:53 NW 6 10.00 Overcast OVC048 53.1 46 77% 30.06 1018.0
07 17:53 NW 8 10.00 Overcast OVC048 53.1 46 77% 30.07 1018.3
07 16:53 NW 6 10.00 Overcast OVC050 55 46 57 53.1 72% 30.08 1018.5
07 15:53 Vrbl 3 10.00 Fair CLR 55 46 72% 30.08 1018.8
07 14:53 NE 5 10.00 Fair CLR 55.9 46 70% 30.1 1019.3
07 13:53 N 5 10.00 Fair CLR 55.9 46 70% 30.11 1019.9
07 12:53 Vrbl 5 10.00 Fair CLR 55 46.9 74% 30.13 1020.4
07 11:53 NW 7 10.00 Fair CLR 54 44.1 69% 30.13 1020.5
07 10:53 NW 8 10.00 Mostly Cloudy BKN024 53.1 43 54 39 69% 30.14 1020.7
07 09:53 N 8 10.00 Overcast OVC026 52 42.1 69% 30.14 1020.7
07 08:53 Vrbl 5 10.00 Fair CLR 52 43 72% 30.15 1020.9
07 07:53 W 5 10.00 Fair CLR 50 42.1 74% 49 30.15 1021.1
07 06:53 Calm 9.00 Fair CLR 43 42.1 97% 30.15 1020.9
07 05:53 Calm 9.00 Fair CLR 41 39.9 96% 30.14 1020.7
07 04:53 SW 6 10.00 Fair CLR 43 42.1 51.1 39.9 97% 40 30.15 1021.0
07 03:53 W 3 10.00 Fair CLR 44.1 42.1 93% 30.15 1020.9
07 02:53 Calm 10.00 Mostly Cloudy BKN031 45 43 93% 30.16 1021.3
07 01:53 SW 3 10.00 Overcast OVC032 46.9 43 86% 30.17 1021.7
07 00:53 W 5 10.00 Overcast OVC031 48 44.1 86% 47 30.15 1021.2
06 23:53 Calm 10.00 Overcast OVC030 50 44.1 80% 30.15 1021.0
06 22:53 W 7 10.00 Overcast OVC027 51.1 45 54 50 80% 30.15 1021.0
06 21:53 SW 5 10.00 Overcast OVC024 51.1 46.9 86% 30.15 1021.2
06 20:53 W 9 G 18 10.00 Overcast OVC013 51.1 46.9 86% 30.15 1020.9
06 19:53 W 9 10.00 Overcast OVC014 52 48 86% 30.14 1020.8
06 18:53 W 6 10.00 Overcast OVC014 52 48 86% 30.14 1020.7
06 17:53 W 6 10.00 Overcast OVC014 52 48 86% 30.14 1020.6
06 16:53 W 5 10.00 Overcast OVC013 53.1 48.9 54 51.1 86% 30.13 1020.4
06 15:53 W 5 10.00 Overcast OVC011 53.1 48.9 86% 30.14 1020.6
06 14:53 W 8 10.00 Overcast OVC014 52 48 86% 30.14 1020.8
06 13:53 Vrbl 7 10.00 Overcast OVC017 53.1 48 83% 30.14 1020.7
06 12:53 W 10 10.00 Overcast OVC018 54 46.9 77% 30.13 1020.5
06 11:53 W 8 10.00 Overcast OVC013 51.1 46.9 86% 30.13 1020.4
06 10:53 W 10 10.00 Overcast OVC015 52 46.9 52 50 83% 30.12 1020.1
06 09:53 W 8 10.00 Overcast OVC014 51.1 46 83% 30.12 1019.9
06 08:53 NW 3 10.00 Overcast OVC014 51.1 46 83% 30.11 1019.5
06 07:53 NW 8 10.00 Overcast OVC013 50 46 86% 47 30.1 1019.4
06 06:53 W 6 10.00 Overcast OVC012 50 46 86% 48 30.09 1018.9
06 05:53 Calm 10.00 Overcast OVC012 50 46 86% 30.07 1018.5
06 04:53 W 6 10.00 Overcast OVC012 50 46.9 51.1 50 89% 48 30.07 1018.4
06 03:53 W 8 10.00 Overcast OVC012 51.1 46.9 86% 30.05 1017.6
06 02:53 W 7 10.00 Overcast OVC010 51.1 46.9 86% 30.04 1017.2
06 01:53 W 7 10.00 Overcast OVC011 51.1 46.9 86% 30.04 1017.2
06 00:53 W 10 10.00 Overcast OVC011 51.1 46.9 86% 30.03 1016.9
05 23:53 W 10 10.00 Overcast OVC009 51.1 48 89% 30.02 1016.5
05 22:53 W 10 10.00 Overcast OVC011 51.1 48 57.9 51.1 89% 30.01 1016.2
05 21:53 W 12 10.00 Overcast OVC011 51.1 48 89% 30 1016.1
05 20:53 W 13 G 26 10.00 Fair CLR 51.1 48 89% 29.98 1015.4
05 19:53 W 9 10.00 Fair CLR 53.1 48 83% 29.97 1015.0
Date Time (pdt) Wind (mph) Vis. (mi.) Weather Sky Cond. Air Dwpt Max. Min. Relative Humidity Wind Chill (°F) Heat Index (°F) altimeter (in) sea level (mb) 1 hr 3 hr 6 hr
6 hour
Temperature (ºF) Pressure Precipitation (in)